STARLINK-32959 (63569 NORAD) Tracking and Keplerian Element Data

This shows tracking and keplerian element data for the satellite.

Feedback or suggestion? Click here.




ElementValue
Catalog63569
NameSTARLINK-32959
Epoch Orbit3947
Epoch Day353.18867275
Epoch Year2025
RAAN60.3012
Inclination43.0036
Eccentricity0.0001919
Argument of Perigee272.4596
Mean Anonmoly87.6036
Mean Motion15.27594066
Decay Rate0.00025796
L11 63569U 25076A 25353.18867275 .00025796 00000+0 94325-3 0 9995
L22 63569 43.0036 60.3012 0001919 272.4596 87.6036 15.27594066 39472



Live tracking and technical data element details for STARLINK-32959 (NORAD 63569). STARLINK-32959 can be tracked NOW for your location showing map with azimuth and elevation plus other details from your city location.







IsCatalogInMostPopularTable: catalog: 63569, numindb: 1
Update: records affected: 1



GetName: 63569 STARLINK-32959

Hit Count: updated at: Sat, 07 Feb 2026 08:45:34 GMT